World > North America > United States > New York
Hourly regional weather for Radisson, New YorkRadisson, New York Regional Hourly Weather

Radisson, New York Regional Weather

regional weather radisson, nyHOURLY REGIONAL WEATHER FOR RADISSON, NY
Lat: 43.17N, Lon: 76.34W 
Web Search

Helpful Tip: Type the letters wx in the search engine next time you need to find us.

Feedback


°F Click to change Radisson hourly weather to Imperial units.Click to change Radisson hourly weather to Metric units. °C
Radisson Weather Map
UTC Time: 10/20/2021, 23:18
Your Time:

Radisson, NY Regional Weather

Expires:202110210000;;002762
ASUS41 KBGM 202310
RWRBGM

REGIONAL WEATHER ROUNDUP
NATIONAL WEATHER SERVICE BINGHAMTON NY
700 PM EDT WED OCT 20 2021

Note: "fair" indicates few or no clouds below 12,000 feet with no
significant weather and/or obstructions to visibility.

* = Station(s) that does not report precipitation, such as rain, 
snow, etc, also no thunder or fog.


NYZ009-015>018-022>025-036-037-044>046-055>057-062-210000
...Central New York...
  
CITY           SKY/WX    TMP DP  RH WIND       PRES   REMARKS
Binghamton     CLOUDY    63  48  58 NW3       30.02R                  
Cortland       CLOUDY    61  50  67 CALM      30.03R                  
Dansville      MOCLDY    61  55  81 S3        30.02S                  
Elmira         MOCLDY    66  52  60 SW3       30.01R                  
Endicott       CLOUDY    61  54  77 CALM      30.01                   
Ithaca         CLOUDY    60  51  72 N6        30.02S                  
Hamilton       CLOUDY    61  45  55 CALM      30.02                   
Monticello     PTCLDY    64  48  56 W5        30.03R                  
Norwich        CLOUDY    59  54  82 N3        30.05                   
Oneonta        FAIR      61  48  63 W5        30.03                   
Penn Yan       LGT RAIN  62  51  67 CALM      30.02S                  
Rome           MOCLDY    61  51  70 NW3       30.01R                  
Seneca Falls   CLOUDY    61  48  63 CALM      30.01                   
Sidney         FAIR      61  52  72 CALM      30.02                   
Skaneateles    CLOUDY    59  55  88 SW3       30.01S                  
Syracuse       CLOUDY    63  54  72 W6        30.00S                  
$$
 

SKY/WX - Weather  TMP - Temperature  DP - Dew Point  RH - Relative Humidity
WIND - Wind Direction/Speed PRES - Barometric Pressure VSB - Visibility
WCI - Wind Chill Index E13G22 Wind - East Wind 13 mph/Gusts of 22 mph